Esperanza, Vieques Island, PR NWLON current weather conditions

sailwx.info

Wind from 065 at 5 knots gusting 10

Water temperature 29.4° C

Last reported at 2020-Jul-11 23:48 UTC.
Time now 2020-Jul-12 00:32 UTC

Location: N 18°06' W 065°28'.
View on Google Maps.

See reports from other nearby stations

  
Tides and Currents Weather Stations Pressure Air Temp Water Temp Dewpoint Dewpoint Depression Visibility Wind Speed Wind Dir Waves Ship Positions
date/time (UTC)wind fromknots sea level pressurealtimeterstation pressurevisibilityair tempwater tempwave heightnotes
2020-Jul-11 23:48 065 5 gusting 10 29.4
2020-Jul-11 23:42 073 5 gusting 9 29.4
2020-Jul-11 23:36 063 4 gusting 9 29.4
2020-Jul-11 23:30 079 4 gusting 11 29.4
2020-Jul-11 23:24 080 4 gusting 10 29.4
2020-Jul-11 23:18 070 3 gusting 11 29.4
2020-Jul-11 23:12 081 6 gusting 12 29.4
2020-Jul-11 23:06 085 6 gusting 11 29.4
2020-Jul-11 23:00 083 5 gusting 11 28.9
2020-Jul-11 22:54 084 7 gusting 12 28.9
2020-Jul-11 22:48 080 6 gusting 13 28.9
2020-Jul-11 22:42 085 7 gusting 13 28.9
2020-Jul-11 22:36 075 5 gusting 11 29.4
2020-Jul-11 22:30 075 4 gusting 9 29.4
2020-Jul-11 22:24 083 5 gusting 10 29.4
2020-Jul-11 22:18 097 6 gusting 13 29.4
2020-Jul-11 22:12 096 9 gusting 13 29.4
2020-Jul-11 22:06 100 6 gusting 15 29.4
2020-Jul-11 22:00 103 8 gusting 13 29.4
2020-Jul-11 21:54 100 9 gusting 13 29.4
2020-Jul-11 21:48 103 12 gusting 16 29.4
2020-Jul-11 21:42 100 10 gusting 15 29.4
2020-Jul-11 21:36 102 10 gusting 17 29.4
2020-Jul-11 21:30 105 12 gusting 18 29.4
2020-Jul-11 21:24 102 10 gusting 16 29.4
2020-Jul-11 21:18 099 11 gusting 16 29.4
2020-Jul-11 21:12 109 11 gusting 17 30.0
2020-Jul-11 21:06 100 11 gusting 18 30.0
2020-Jul-11 21:00 100 13 gusting 17 30.0
2020-Jul-11 20:54 099 11 gusting 17 30.0
2020-Jul-11 20:48 110 13 gusting 17 30.0
2020-Jul-11 20:42 108 13 gusting 17 30.0
2020-Jul-11 20:36 106 10 gusting 18 30.0
2020-Jul-11 20:30 112 9 gusting 16 30.0
2020-Jul-11 20:24 103 11 gusting 19 30.0
2020-Jul-11 20:18 103 10 gusting 16 30.0
2020-Jul-11 20:12 102 13 gusting 17 30.0
2020-Jul-11 20:06 104 12 gusting 16 30.0
2020-Jul-11 20:00 105 12 gusting 17 30.0
2020-Jul-11 19:54 103 13 gusting 18 30.0
2020-Jul-11 19:48 114 12 gusting 16 30.0
2020-Jul-11 19:42 114 12 gusting 17 30.0
2020-Jul-11 19:36 102 10 gusting 16 30.0
2020-Jul-11 19:30 105 12 gusting 17 29.4
2020-Jul-11 19:24 109 12 gusting 19 29.4
2020-Jul-11 19:18 099 11 gusting 15 29.4
2020-Jul-11 19:12 104 14 gusting 19 29.4
2020-Jul-11 19:06 099 12 gusting 16 29.4
2020-Jul-11 19:00 104 13 gusting 19 29.4
2020-Jul-11 18:54 108 11 gusting 16 29.4
2020-Jul-11 18:48 098 11 gusting 17 29.4
2020-Jul-11 18:42 116 13 gusting 17 29.4
2020-Jul-11 18:36 114 15 gusting 18 29.4
2020-Jul-11 18:30 106 11 gusting 17 29.4
2020-Jul-11 18:24 106 11 gusting 16 29.4
2020-Jul-11 18:18 118 12 gusting 17 30.0
2020-Jul-11 18:12 111 11 gusting 16 29.4
2020-Jul-11 18:06 114 13 gusting 19 29.4
2020-Jul-11 18:00 113 11 gusting 15 29.4
2020-Jul-11 17:54 105 12 gusting 18 29.4
2020-Jul-11 17:48 115 14 gusting 19 29.4
2020-Jul-11 17:42 112 14 gusting 19 29.4
2020-Jul-11 17:36 118 15 gusting 18 29.4
2020-Jul-11 17:30 105 13 gusting 18 29.4
2020-Jul-11 17:24 119 14 gusting 19 30.0
2020-Jul-11 17:18 118 13 gusting 16 30.0
2020-Jul-11 17:12 119 14 gusting 19 30.0
2020-Jul-11 17:06 117 11 gusting 17 29.4
2020-Jul-11 17:00 122 15 gusting 18 29.4
2020-Jul-11 16:54 115 11 gusting 17 29.4
2020-Jul-11 16:48 112 11 gusting 17 29.4
2020-Jul-11 16:42 119 13 gusting 18 29.4
2020-Jul-11 16:36 116 12 gusting 16 29.4
2020-Jul-11 16:30 112 10 gusting 16 29.4
2020-Jul-11 16:24 116 13 gusting 16 29.4
2020-Jul-11 16:18 117 13 gusting 17 29.4
2020-Jul-11 16:12 114 10 gusting 14 29.4
2020-Jul-11 16:06 119 10 gusting 15 29.4
2020-Jul-11 16:00 108 9 gusting 17 28.9
2020-Jul-11 15:54 118 13 gusting 17 28.9
2020-Jul-11 15:48 110 8 gusting 15 28.9
2020-Jul-11 15:42 110 8 gusting 13 28.9
2020-Jul-11 15:36 099 9 gusting 14 28.9
2020-Jul-11 15:30 113 9 gusting 13 28.9
2020-Jul-11 15:24 107 11 gusting 15 28.9
2020-Jul-11 15:18 110 8 gusting 14 28.9
2020-Jul-11 15:12 115 11 gusting 15 28.9
2020-Jul-11 15:06 102 9 gusting 13 28.9
2020-Jul-11 15:00 121 13 gusting 17 28.9
2020-Jul-11 14:54 114 10 gusting 17 28.9
2020-Jul-11 14:48 094 10 gusting 15 28.9
2020-Jul-11 14:42 111 9 gusting 13 28.3
2020-Jul-11 14:36 105 8 gusting 15 28.3
2020-Jul-11 14:30 116 12 gusting 15 28.3
2020-Jul-11 14:24 100 10 gusting 14 28.3
2020-Jul-11 14:18 110 12 gusting 15 28.3
2020-Jul-11 14:12 114 11 gusting 14 28.3
2020-Jul-11 14:06 109 9 gusting 13 28.3
2020-Jul-11 14:00 119 11 gusting 15 28.3
2020-Jul-11 13:54 110 8 gusting 12 28.3
2020-Jul-11 13:48 098 9 gusting 14 28.3
2020-Jul-11 13:42 101 11 gusting 15 28.3
2020-Jul-11 13:36 100 8 gusting 16 28.3
2020-Jul-11 13:30 094 11 gusting 15 28.3
2020-Jul-11 13:24 102 9 gusting 14 28.3
2020-Jul-11 13:18 087 10 gusting 16 28.3
2020-Jul-11 13:12 098 8 gusting 13 28.3
2020-Jul-11 13:06 089 8 gusting 13 28.3
2020-Jul-11 13:00 093 8 gusting 13 28.3
2020-Jul-11 12:54 092 9 gusting 14 28.3
2020-Jul-11 12:48 091 9 gusting 16 28.3
2020-Jul-11 12:42 111 11 gusting 14 27.8
2020-Jul-11 12:36 099 8 gusting 14 27.8
2020-Jul-11 12:30 106 8 gusting 17 27.8
2020-Jul-11 12:24 099 9 gusting 14 27.8
2020-Jul-11 12:18 094 9 gusting 13 27.8
2020-Jul-11 12:12 107 11 gusting 15 28.3
2020-Jul-11 12:06 103 11 gusting 16 28.3
2020-Jul-11 12:00 106 10 gusting 15 28.3
2020-Jul-11 11:54 112 9 gusting 13 28.3
2020-Jul-11 11:48 112 9 gusting 14 28.3
2020-Jul-11 11:42 106 10 gusting 16 28.3
2020-Jul-11 11:36 095 11 gusting 14 28.3
2020-Jul-11 11:30 104 12 gusting 16 28.3
2020-Jul-11 11:24 095 9 gusting 12 28.3
2020-Jul-11 11:18 100 8 gusting 12 28.3
2020-Jul-11 11:12 086 7 gusting 12 28.3
2020-Jul-11 11:06 092 8 gusting 13 28.3
2020-Jul-11 11:00 085 6 gusting 12 28.3
2020-Jul-11 10:54 085 7 gusting 13 28.3
2020-Jul-11 10:48 095 10 gusting 14 28.3
2020-Jul-11 10:42 087 5 gusting 9 28.3
2020-Jul-11 10:36 083 6 gusting 11 28.3
2020-Jul-11 10:30 092 7 gusting 12 28.3
2020-Jul-11 10:24 101 8 gusting 12 28.3
2020-Jul-11 10:18 098 7 gusting 10 27.8
2020-Jul-11 10:12 098 6 gusting 10 27.8
2020-Jul-11 10:06 094 6 gusting 8 27.8
2020-Jul-11 10:00 097 6 gusting 11 28.3
2020-Jul-11 09:54 095 6 gusting 9 28.3
2020-Jul-11 09:48 083 5 gusting 8 28.3
2020-Jul-11 09:42 094 6 gusting 10 28.3
2020-Jul-11 09:36 079 3 gusting 8 28.3
2020-Jul-11 09:30 076 3 gusting 7 28.3
2020-Jul-11 09:24 085 5 gusting 9 28.3
2020-Jul-11 09:18 061 2 gusting 6 28.3
2020-Jul-11 09:12 094 5 gusting 8 28.3
2020-Jul-11 09:06 097 6 gusting 9 28.3
2020-Jul-11 09:00 090 6 gusting 12 28.3
2020-Jul-11 08:54 094 6 gusting 10 28.3
2020-Jul-11 08:48 096 6 gusting 9 28.3
2020-Jul-11 08:42 095 5 gusting 11 28.3
2020-Jul-11 08:36 089 6 gusting 13 28.3
2020-Jul-11 08:30 094 6 gusting 14 28.9
2020-Jul-11 08:24 108 10 gusting 14 28.9
2020-Jul-11 08:18 105 8 gusting 13 28.9
2020-Jul-11 08:12 108 9 gusting 13 28.9
2020-Jul-11 08:06 101 7 gusting 12 28.9
2020-Jul-11 08:00 095 6 gusting 11 28.9
2020-Jul-11 07:54 093 6 gusting 11 28.9
2020-Jul-11 07:48 088 7 gusting 13 28.9
2020-Jul-11 07:42 093 7 gusting 12 28.9
2020-Jul-11 07:36 102 8 gusting 13 28.9
2020-Jul-11 07:30 098 8 gusting 13 28.9
2020-Jul-11 07:24 107 7 gusting 12 28.9
2020-Jul-11 07:18 100 7 gusting 14 28.9
2020-Jul-11 07:12 097 9 gusting 12 28.9
2020-Jul-11 07:06 091 6 gusting 13 28.9
2020-Jul-11 07:00 088 4 gusting 10 28.9
2020-Jul-11 06:54 092 7 gusting 13 28.9
2020-Jul-11 06:48 101 8 gusting 13 28.9
2020-Jul-11 06:42 093 7 gusting 13 28.9
2020-Jul-11 06:36 094 6 gusting 12 28.9
2020-Jul-11 06:30 089 7 gusting 12 28.9
2020-Jul-11 06:24 097 6 gusting 12 28.9
2020-Jul-11 06:18 097 7 gusting 12 28.9
2020-Jul-11 06:12 094 8 gusting 13 28.9
2020-Jul-11 06:06 091 9 gusting 14 28.9
2020-Jul-11 06:00 080 5 gusting 9 28.9
2020-Jul-11 05:54 078 2 gusting 6 28.9
2020-Jul-11 05:48 067 3 gusting 7 28.9
2020-Jul-11 05:42 077 4 gusting 7 28.9
2020-Jul-11 05:36 077 5 gusting 8 28.9
2020-Jul-11 05:30 081 6 gusting 11 28.9
2020-Jul-11 05:24 071 5 gusting 13 28.9
2020-Jul-11 05:18 070 4 gusting 7 28.9
2020-Jul-11 05:12 063 4 gusting 8 28.9
2020-Jul-11 05:06 073 3 gusting 9 28.9
2020-Jul-11 05:00 069 3 gusting 6 28.9
2020-Jul-11 04:54 063 2 gusting 5 28.9
2020-Jul-11 04:48 056 3 gusting 6 28.9
2020-Jul-11 04:42 070 3 gusting 6 28.9
2020-Jul-11 04:36 068 3 gusting 7 28.9
2020-Jul-11 04:30 064 2 gusting 5 28.9
2020-Jul-11 04:24 063 2 gusting 5 28.9
2020-Jul-11 04:18 060 2 gusting 5 28.9
2020-Jul-11 04:12 063 2 gusting 7 28.9
2020-Jul-11 04:06 067 3 gusting 5 28.9
2020-Jul-11 04:00 058 2 gusting 5 28.9
2020-Jul-11 03:54 065 3 gusting 6 28.9
2020-Jul-11 03:48 064 3 gusting 6 28.9
2020-Jul-11 03:42 071 3 gusting 6 28.9
2020-Jul-11 03:36 061 2 gusting 6 28.9
2020-Jul-11 03:30 063 3 gusting 7 28.9
2020-Jul-11 03:24 067 2 gusting 6 28.9
2020-Jul-11 03:18 063 4 gusting 7 28.9
2020-Jul-11 03:12 071 4 gusting 6 28.9
2020-Jul-11 03:06 071 3 gusting 6 28.9
2020-Jul-11 03:00 062 3 gusting 6 28.9
2020-Jul-11 02:54 064 2 gusting 6 29.4
2020-Jul-11 02:48 071 4 gusting 8 29.4
2020-Jul-11 02:42 076 3 gusting 7 29.4
2020-Jul-11 02:36 075 5 gusting 8 29.4
2020-Jul-11 02:30 077 4 gusting 9 29.4
2020-Jul-11 02:24 072 5 gusting 8 29.4
2020-Jul-11 02:18 066 3 gusting 6 29.4
2020-Jul-11 02:12 074 3 gusting 9 29.4
2020-Jul-11 02:06 070 3 gusting 5 29.4
2020-Jul-11 02:00 066 3 gusting 7 29.4
2020-Jul-11 01:54 074 3 gusting 6 29.4
2020-Jul-11 01:48 064 2 gusting 5 29.4
2020-Jul-11 01:42 066 3 gusting 7 29.4
2020-Jul-11 01:36 067 2 gusting 6 29.4
2020-Jul-11 01:30 063 3 gusting 6 29.4
2020-Jul-11 01:24 061 3 gusting 5 29.4
2020-Jul-11 01:18 067 4 gusting 6 29.4
2020-Jul-11 01:12 052 2 gusting 6 29.4
2020-Jul-11 01:06 079 4 gusting 8 29.4
2020-Jul-11 01:00 090 6 gusting 8 29.4
2020-Jul-11 00:54 088 6 gusting 10 29.4
2020-Jul-11 00:48 079 6 gusting 9 29.4
2020-Jul-11 00:42 085 6 gusting 11 29.4
2020-Jul-11 00:36 084 7 gusting 11 29.4
2020-Jul-11 00:30 075 5 gusting 8 29.4
2020-Jul-11 00:24 081 5 gusting 8 29.4
2020-Jul-11 00:18 081 4 gusting 6 29.4
2020-Jul-11 00:12 084 5 gusting 9 29.4
2020-Jul-11 00:06 084 6 gusting 8 29.4
2020-Jul-11 00:00 086 5 gusting 8 29.4
2020-Jul-10 23:48 090 6 gusting 13 30.0
2020-Jul-10 23:42 089 7 gusting 10 30.0
2020-Jul-10 23:36 084 7 gusting 12 30.0
2020-Jul-10 23:30 097 7 gusting 13 30.0
2020-Jul-10 23:24 096 6 gusting 11 30.0
2020-Jul-10 23:18 096 8 gusting 13 30.0
2020-Jul-10 23:12 097 7 gusting 11 30.0
2020-Jul-10 23:06 097 6 gusting 11 30.0
2020-Jul-10 23:00 096 8 gusting 12 29.4
2020-Jul-10 22:54 093 6 gusting 10 29.4
2020-Jul-10 22:48 099 6 gusting 11 29.4
2020-Jul-10 22:42 093 6 gusting 10 29.4
2020-Jul-10 22:36 096 7 gusting 11 29.4
2020-Jul-10 22:30 101 6 gusting 11 29.4
2020-Jul-10 22:24 099 9 gusting 13 29.4
2020-Jul-10 22:18 088 8 gusting 13 30.0
2020-Jul-10 22:12 095 6 gusting 11 30.0
2020-Jul-10 22:06 098 6 gusting 13 30.0
2020-Jul-10 22:00 093 9 gusting 15 30.0
2020-Jul-10 21:54 106 10 gusting 15 30.0
2020-Jul-10 21:48 095 9 gusting 14 30.0
2020-Jul-10 21:42 104 8 gusting 14 30.0
2020-Jul-10 21:36 106 9 gusting 14 30.0
2020-Jul-10 21:30 101 6 gusting 13 30.0
2020-Jul-10 21:24 098 10 gusting 13 30.0
2020-Jul-10 21:18 113 8 gusting 12 30.0
2020-Jul-10 21:12 108 10 gusting 13 30.0
2020-Jul-10 21:06 115 13 gusting 15 30.0
2020-Jul-10 21:00 107 8 gusting 13 30.0
2020-Jul-10 20:54 107 8 gusting 13 30.0
2020-Jul-10 20:48 115 10 gusting 15 30.0
2020-Jul-10 20:42 103 10 gusting 14 30.0
2020-Jul-10 20:36 108 10 gusting 14 30.0
2020-Jul-10 20:30 107 10 gusting 14 30.0
2020-Jul-10 20:24 111 11 gusting 15 30.0
2020-Jul-10 20:18 101 9 gusting 16 30.0
2020-Jul-10 20:12 119 13 gusting 15 30.0
2020-Jul-10 20:06 116 10 gusting 14 30.0
2020-Jul-10 20:00 107 9 gusting 14 30.0
2020-Jul-10 19:54 120 12 gusting 16 30.0
2020-Jul-10 19:48 118 13 gusting 15 30.0
2020-Jul-10 19:42 114 10 gusting 16 30.0
2020-Jul-10 19:36 114 12 gusting 15 30.0
2020-Jul-10 19:30 112 9 gusting 15 30.0
2020-Jul-10 19:24 112 11 gusting 13 30.0
2020-Jul-10 19:18 112 11 gusting 15 30.0
2020-Jul-10 19:12 112 10 gusting 15 30.0
2020-Jul-10 19:06 107 10 gusting 14 30.0
2020-Jul-10 19:00 097 11 gusting 15 30.0
2020-Jul-10 18:54 113 11 gusting 16 30.0
2020-Jul-10 18:48 119 12 gusting 15 30.0
2020-Jul-10 18:42 117 11 gusting 16 30.0
2020-Jul-10 18:36 101 9 gusting 13 30.0
2020-Jul-10 18:30 102 11 gusting 13 30.0
2020-Jul-10 18:24 102 10 gusting 13 30.0
2020-Jul-10 18:18 106 9 gusting 13 30.0
2020-Jul-10 18:12 108 10 gusting 15 30.0
2020-Jul-10 18:06 104 11 gusting 14 30.0
2020-Jul-10 18:00 101 10 gusting 15 30.0
2020-Jul-10 17:54 116 11 gusting 15 29.4
2020-Jul-10 17:48 118 11 gusting 17 29.4
2020-Jul-10 17:42 109 12 gusting 14 29.4
2020-Jul-10 17:36 107 9 gusting 15 29.4
2020-Jul-10 17:30 106 12 gusting 17 29.4
2020-Jul-10 17:24 105 9 gusting 16 29.4
2020-Jul-10 17:18 115 10 gusting 16 29.4
2020-Jul-10 17:12 120 13 gusting 16 29.4
2020-Jul-10 17:06 109 13 gusting 16 29.4
2020-Jul-10 17:00 115 13 gusting 15 29.4
2020-Jul-10 16:54 110 11 gusting 16 29.4
2020-Jul-10 16:48 113 11 gusting 17 29.4
2020-Jul-10 16:42 121 14 gusting 16 29.4
2020-Jul-10 16:36 109 12 gusting 18 29.4
2020-Jul-10 16:30 111 11 gusting 14 29.4
2020-Jul-10 16:24 111 10 gusting 16 29.4
2020-Jul-10 16:18 119 14 gusting 17 29.4
2020-Jul-10 16:12 110 13 gusting 17 29.4
2020-Jul-10 16:06 115 12 gusting 15 29.4
2020-Jul-10 16:00 105 9 gusting 15 29.4
2020-Jul-10 15:54 107 11 gusting 16 29.4
2020-Jul-10 15:48 108 11 gusting 15 29.4
2020-Jul-10 15:42 110 12 gusting 14 29.4
2020-Jul-10 15:36 107 11 gusting 15 29.4
2020-Jul-10 15:30 110 10 gusting 13 28.9
2020-Jul-10 15:24 113 11 gusting 16 28.9
2020-Jul-10 15:18 110 11 gusting 15 28.9
2020-Jul-10 15:12 114 9 gusting 16 28.9
2020-Jul-10 15:06 118 13 gusting 16 28.9
2020-Jul-10 15:00 120 15 gusting 18 28.9
2020-Jul-10 14:54 106 9 gusting 13 28.9
2020-Jul-10 14:48 114 10 gusting 14 28.9
2020-Jul-10 14:42 108 9 gusting 13 28.9
2020-Jul-10 14:36 113 11 gusting 14 28.9
2020-Jul-10 14:30 105 11 gusting 13 28.9
2020-Jul-10 14:24 111 13 gusting 16 28.3
2020-Jul-10 14:18 111 11 gusting 15 28.3
2020-Jul-10 14:12 118 11 gusting 15 28.3
2020-Jul-10 14:06 120 11 gusting 14 28.3
2020-Jul-10 14:00 107 10 gusting 15 28.3
2020-Jul-10 13:54 110 9 gusting 13 28.3
2020-Jul-10 13:48 111 9 gusting 13 28.3
2020-Jul-10 13:42 112 12 gusting 16 28.3
2020-Jul-10 13:36 111 10 gusting 15 28.3
2020-Jul-10 13:30 109 10 gusting 15 28.3
2020-Jul-10 13:24 109 9 gusting 15 28.3
2020-Jul-10 13:18 113 8 gusting 13 28.3
2020-Jul-10 13:12 110 8 gusting 13 28.3
2020-Jul-10 13:06 114 10 gusting 15 28.3
2020-Jul-10 13:00 104 9 gusting 13 28.3
2020-Jul-10 12:54 112 9 gusting 16 28.3
2020-Jul-10 12:48 112 9 gusting 13 28.3
2020-Jul-10 12:42 114 10 gusting 15 28.3
2020-Jul-10 12:36 118 11 gusting 14 28.3
2020-Jul-10 12:30 106 11 gusting 15 27.8
2020-Jul-10 12:24 104 11 gusting 15 27.8
2020-Jul-10 12:18 106 10 gusting 14 27.8
2020-Jul-10 12:12 106 9 gusting 14 27.8
2020-Jul-10 12:06 109 9 gusting 13 27.8
2020-Jul-10 12:00 102 9 gusting 14 27.8
2020-Jul-10 11:54 106 8 gusting 14 27.8
2020-Jul-10 11:48 109 8 gusting 14 27.8
2020-Jul-10 11:42 114 10 gusting 17 27.8
2020-Jul-10 11:36 112 11 gusting 14 27.8
2020-Jul-10 11:30 107 10 gusting 15 27.8
2020-Jul-10 11:24 103 10 gusting 13 27.8
2020-Jul-10 11:18 109 9 gusting 13 27.8
2020-Jul-10 11:12 106 8 gusting 15 27.8
2020-Jul-10 11:06 101 10 gusting 15 27.8
2020-Jul-10 11:00 106 9 gusting 13 27.8
2020-Jul-10 10:54 120 13 gusting 16 27.8
2020-Jul-10 10:48 104 9 gusting 13 27.8
2020-Jul-10 10:42 102 6 gusting 13 27.8
2020-Jul-10 10:36 105 7 gusting 10 27.8
2020-Jul-10 10:30 106 6 gusting 11 27.8
2020-Jul-10 10:24 106 7 gusting 11 27.8
2020-Jul-10 10:18 099 6 gusting 13 27.8
2020-Jul-10 10:12 106 9 gusting 13 27.8
2020-Jul-10 10:06 107 10 gusting 13 27.8
2020-Jul-10 10:00 104 9 gusting 13 28.3
2020-Jul-10 09:54 095 6 gusting 11 28.3
2020-Jul-10 09:48 097 8 gusting 13 28.3
2020-Jul-10 09:42 104 9 gusting 13 28.3
2020-Jul-10 09:36 101 9 gusting 16 28.3
2020-Jul-10 09:30 096 7 gusting 12 28.3
2020-Jul-10 09:24 102 9 gusting 13 28.3
2020-Jul-10 09:18 098 6 gusting 11 28.3
2020-Jul-10 09:12 092 5 gusting 9 28.3
2020-Jul-10 09:06 095 6 gusting 11 28.3
2020-Jul-10 09:00 100 6 gusting 10 28.3
2020-Jul-10 08:54 100 6 gusting 8 28.3
2020-Jul-10 08:48 103 7 gusting 10 28.3
2020-Jul-10 08:42 098 7 gusting 12 28.3
2020-Jul-10 08:36 093 6 gusting 11 28.3
2020-Jul-10 08:30 098 6 gusting 11 28.3
2020-Jul-10 08:24 093 6 gusting 11 28.3
2020-Jul-10 08:18 093 6 gusting 10 28.3
2020-Jul-10 08:12 092 6 gusting 11 28.3
2020-Jul-10 08:06 102 7 gusting 11 28.3
2020-Jul-10 08:00 098 7 gusting 12 28.3
2020-Jul-10 07:54 090 8 gusting 13 28.3
2020-Jul-10 07:48 091 5 gusting 10 28.3
2020-Jul-10 07:42 099 7 gusting 11 28.3
2020-Jul-10 07:36 090 6 gusting 12 28.3
2020-Jul-10 07:30 098 7 gusting 13 28.3
2020-Jul-10 07:24 098 8 gusting 14 28.3
2020-Jul-10 07:18 105 9 gusting 13 28.9
2020-Jul-10 07:12 101 6 gusting 12 28.9
2020-Jul-10 07:06 099 7 gusting 13 28.9
2020-Jul-10 07:00 102 8 gusting 13 28.9
2020-Jul-10 06:54 098 6 gusting 10 28.9
2020-Jul-10 06:48 105 7 gusting 11 28.9
2020-Jul-10 06:42 099 7 gusting 11 28.9
2020-Jul-10 06:36 102 9 gusting 14 28.9
2020-Jul-10 06:30 105 9 gusting 15 28.9
2020-Jul-10 06:24 102 9 gusting 14 28.9
2020-Jul-10 06:18 101 7 gusting 12 28.9
2020-Jul-10 06:12 100 8 gusting 13 28.9
2020-Jul-10 06:06 102 9 gusting 13 28.9
2020-Jul-10 06:00 090 7 gusting 13 28.9
2020-Jul-10 05:54 091 8 gusting 12 28.9
2020-Jul-10 05:48 087 6 gusting 12 28.9
2020-Jul-10 05:42 080 5 gusting 8 28.9
2020-Jul-10 05:36 067 4 gusting 10 28.9
2020-Jul-10 05:30 067 3 gusting 8 28.9
2020-Jul-10 05:24 072 4 gusting 7 28.9
2020-Jul-10 05:18 070 3 gusting 8 28.9
2020-Jul-10 05:12 078 6 gusting 10 28.9
2020-Jul-10 05:06 087 6 gusting 12 28.9
2020-Jul-10 05:00 094 7 gusting 13 28.9
2020-Jul-10 04:54 097 6 gusting 12 28.9
2020-Jul-10 04:48 091 7 gusting 12 28.9
2020-Jul-10 04:42 097 7 gusting 13 28.9
2020-Jul-10 04:36 083 6 gusting 11 28.9
2020-Jul-10 04:30 083 5 gusting 10 28.9
2020-Jul-10 04:24 077 5 gusting 11 28.9
2020-Jul-10 04:18 079 7 gusting 12 28.9
2020-Jul-10 04:12 084 5 gusting 12 28.9
2020-Jul-10 04:06 083 6 gusting 11 28.9
2020-Jul-10 04:00 090 6 gusting 9 28.9
2020-Jul-10 03:54 080 5 gusting 8 28.9
2020-Jul-10 03:48 081 6 gusting 10 28.9
2020-Jul-10 03:42 081 6 gusting 9 28.9
2020-Jul-10 03:36 088 6 gusting 12 28.9
2020-Jul-10 03:30 080 5 gusting 7 28.9
2020-Jul-10 03:24 077 6 gusting 8 29.4
2020-Jul-10 03:18 075 5 gusting 7 29.4
2020-Jul-10 03:12 078 5 gusting 11 29.4
2020-Jul-10 03:06 080 4 gusting 11 29.4
2020-Jul-10 03:00 083 7 gusting 12 29.4
2020-Jul-10 02:54 079 4 gusting 8 29.4
2020-Jul-10 02:48 088 7 gusting 10 29.4
2020-Jul-10 02:42 090 6 gusting 9 29.4
2020-Jul-10 02:36 072 3 gusting 6 29.4
2020-Jul-10 02:30 069 4 gusting 6 29.4
2020-Jul-10 02:24 059 3 gusting 8 29.4
2020-Jul-10 02:18 053 2 gusting 4 29.4
2020-Jul-10 02:12 052 2 gusting 3 29.4
2020-Jul-10 02:06 065 3 gusting 4 29.4
2020-Jul-10 02:00 046 2 gusting 5 29.4
2020-Jul-10 01:54 056 3 gusting 6 29.4
2020-Jul-10 01:48 055 3 gusting 5 29.4
2020-Jul-10 01:42 068 3 gusting 6 29.4
2020-Jul-10 01:36 066 2 gusting 6 29.4
2020-Jul-10 01:30 069 2 gusting 7 29.4
2020-Jul-10 01:24 067 3 gusting 5 29.4
2020-Jul-10 01:18 068 2 gusting 6 29.4
2020-Jul-10 01:12 071 4 gusting 7 29.4
2020-Jul-10 01:06 083 6 gusting 11 29.4
2020-Jul-10 01:00 095 5 gusting 8 29.4
2020-Jul-10 00:54 084 5 gusting 7 29.4
2020-Jul-10 00:48 085 5 gusting 7 29.4
2020-Jul-10 00:42 075 4 gusting 8 29.4
2020-Jul-10 00:36 066 3 gusting 9 29.4
2020-Jul-10 00:30 079 5 gusting 9 29.4
2020-Jul-10 00:24 066 2 gusting 6 29.4
2020-Jul-10 00:18 069 2 gusting 6 29.4
2020-Jul-10 00:12 070 3 gusting 6 29.4
2020-Jul-10 00:06 067 4 gusting 7 29.4
2020-Jul-10 00:00 065 2 gusting 5 29.4